Hourly Data Report for December 08, 2021

TORONTO CITY
ONTARIO
Current Station Operator: ECCC - MSC

43°40'00.000" N
79°24'00.000" W
112.50 m
6158355
71508
XTO

Download Data

Hourly Data (December 2021)
Hourly Data Report for December 8, 2021
TIME
LST
Temp Definition
°C
Dew Point Definition
°C
Rel Hum Definition
%
Precip. Amount Definition
mm

Wind Dir Definition
10's deg

Wind Spd Definition
km/h
Visibility Definition
km
Stn Press Definition
kPa
Hmdx Definition


Wind Chill Definition


Weather Definition


00:00 -5.0 -11.6 60 0.0       100.66     LegendNANA
01:00 -4.7 -11.4 60 0.0       100.57     LegendNANA
02:00 -4.6 -12.2 55 0.0       100.54     LegendNANA
03:00 -4.2 -11.7 56 0.0       100.57     LegendNANA
04:00 -5.0 -9.6 70 0.0       100.47     LegendNANA
05:00 -5.0 -7.5 83 0.2       100.45     LegendNANA
06:00 -4.7 -7.1 83 0.2       100.40     LegendNANA
07:00 -4.3 -6.3 86 0.1       100.34     LegendNANA
08:00 -3.5 -5.7 85 0.1       100.26     LegendNANA
09:00 -2.8 -4.9 85 0.1       100.18     LegendNANA
10:00 -2.6 -4.8 85 0.0       100.17     LegendNANA
11:00 -2.3 -4.3 86 0.1       100.10     LegendNANA
12:00 -2.0 -3.7 88 0.4       99.99     LegendNANA
13:00 -1.4 -3.8 84 0.3       99.91     LegendNANA
14:00 -1.4 -3.4 86 0.4       99.87     LegendNANA
15:00 -1.3 -3.7 84 0.1       99.86     LegendNANA
16:00 -1.2 -5.3 74 0.0       99.92     LegendNANA
17:00 -2.0 -6.6 70 0.0       100.00     LegendNANA
18:00 -2.2 -7.1 69 0.0       100.04     LegendNANA
19:00 -2.8 -7.1 72 0.0       100.10     LegendNANA
20:00 -3.0 -7.2 73 0.0       100.16     LegendNANA
21:00 -2.4 -6.3 74 0.0       100.21     LegendNANA
22:00 -2.5 -6.3 75 0.0       100.26     LegendNANA
23:00 -3.2 -6.6 77 0.0       100.28     LegendNANA

Notes on Data Quality.

Legend

  • E = Estimated
  • M = Missing
  • NA = Not Available*
  • [empty] = Indicates an unobserved value
Date modified: